Location: Copper Breaks State Park
(34.1132°N, 99.7492°W)
Time: 00:10:31
(UTC-05:00)

SL-16 R/B - Visible Passes

Search period start: 23 October 2014 00:00
Search period end: 02 November 2014 00:00
Orbit: 986 x 1006 km, 99.2° (Epoch: 22 October)

Date Brightness Start Highest point End Pass type
(mag) Time Alt. Az. Time Alt. Az. Time Alt. Az.
23 Oct 3.0 05:10:41 10° SSE 05:16:41 57° ENE 05:22:45 10° N visible
23 Oct 3.7 06:56:30 10° SW 07:00:37 18° W 07:04:46 10° NW visible
23 Oct 5.0 19:43:22 10° NNW 19:47:50 21° WNW 19:52:19 10° WSW visible
24 Oct 5.1 04:01:39 10° E 04:04:40 14° ENE 04:07:42 10° NNE visible
24 Oct 2.4 05:41:19 10° S 05:47:30 80° WSW 05:53:44 10° NNW visible
24 Oct 5.4 20:16:34 10° NW 20:18:15 11° WNW 20:19:55 10° WNW visible
25 Oct 4.4 04:30:12 10° ESE 04:35:08 26° ENE 04:40:06 10° NNE visible
25 Oct 2.8 06:12:38 10° S 06:18:27 43° W 06:24:20 10° NNW visible
26 Oct 3.4 04:59:55 10° SE 05:05:45 46° ENE 05:11:39 10° N visible
26 Oct 3.5 06:44:46 10° SW 06:49:32 23° W 06:54:20 10° NW visible
26 Oct 4.8 19:32:00 10° NNW 19:36:59 26° WNW 19:41:57 10° WSW visible
27 Oct 5.3 03:52:11 10° ENE 03:53:52 11° ENE 03:55:33 10° NE visible
27 Oct 2.5 05:30:20 10° SSE 05:36:31 84° ENE 05:42:46 10° NNW visible
27 Oct 4.1 07:18:55 10° WSW 07:20:45 11° W 07:22:36 10° WNW visible
27 Oct 5.2 20:04:24 10° NNW 20:07:27 14° WNW 20:10:29 10° W visible
28 Oct 4.6 04:19:49 10° ESE 04:24:16 21° ENE 04:28:44 10° NNE visible
28 Oct 2.6 06:01:24 10° S 06:07:25 54° W 06:13:30 10° NNW visible
29 Oct 3.7 04:49:13 10° SE 04:54:50 38° ENE 05:00:29 10° N visible
29 Oct 3.3 06:33:13 10° SSW 06:38:27 29° W 06:43:45 10° NW visible
29 Oct 4.4 19:20:44 10° N 19:26:06 31° WNW 19:31:28 10° SW visible
30 Oct 2.7 05:19:25 10° SSE 05:25:33 69° ENE 05:31:44 10° N visible
30 Oct 3.9 07:06:18 10° SW 07:09:38 15° W 07:12:59 10° WNW visible
30 Oct 5.1 19:52:44 10° NNW 19:56:37 18° WNW 20:00:30 10° WSW visible
31 Oct 4.8 04:09:36 10° E 04:13:26 17° ENE 04:14:44 16° NE visible
31 Oct 2.4 05:50:16 10° S 05:56:24 66° WSW 05:59:45 29° NNW visible
01 Nov 4.1 04:38:38 10° SE 04:43:56 31° ENE 04:45:04 29° NE visible
01 Nov 3.0 06:21:48 10° SSW 06:27:23 36° W 06:30:07 25° NW visible
01 Nov 4.1 19:09:31 10° N 19:15:13 38° WNW 19:20:52 10° SW visible
